Theta_e
334 333 333 334 334 333 333 333 328 321 320 322 327 328 322 321 322 327 334 334 333 333 332 332 332 333 332 330 332 333 331 331 329 327 326 325 324 321 317 314 312 310 309 308 307 308 310 312 314 316 317 318 320 320 320 320 319 319 319 320 320 320 321 321 321 321 321 321 321 321 321 321 321 321 320 319 318 319 318 317 318 319 319 319 319
333 333 333 334 334 334 333 333 331 327 325 324 326 330 328 324 322 324 332 334 333 333 332 332 332 333 333 330 332 333 332 331 329 328 326 326 327 325 319 313 311 310 308 308 308 309 312 314 316 317 319 320 321 321 321 320 320 320 320 321 320 320 321 321 321 321 321 321 321 321 321 321 321 322 321 319 318 319 319 319 318 319 320 320 321
333 332 332 333 333 334 334 333 332 331 330 327 326 328 329 329 326 326 332 335 333 332 332 332 332 333 332 331 333 333 332 331 329 328 327 328 328 328 322 313 309 309 308 308 309 311 314 315 317 319 321 322 322 321 321 320 321 320 321 321 320 320 321 322 321 321 321 321 321 321 321 321 321 322 321 319 318 318 319 319 319 320 320 321 321
332 332 332 332 333 333 333 333 333 332 331 330 329 328 328 330 330 329 333 334 333 332 331 332 332 332 331 331 332 331 332 331 329 329 330 330 328 329 327 316 309 309 309 310 311 313 315 316 318 321 323 323 323 322 321 321 321 321 321 321 321 321 321 322 322 321 319 319 320 321 321 321 321 321 320 319 318 319 320 321 321 321 322 322 321
331 331 332 332 332 332 332 332 333 333 332 331 330 329 328 329 330 330 332 334 334 332 331 331 332 332 331 332 332 332 332 331 330 330 330 330 328 329 326 315 310 310 311 312 313 315 316 317 319 323 324 324 323 322 322 322 322 321 321 321 321 321 322 322 323 321 318 317 318 320 320 320 320 321 320 319 319 321 322 323 323 323 323 323 322
330 330 330 331 331 332 332 332 332 332 332 331 330 330 329 330 329 328 330 333 333 333 332 331 331 332 332 332 332 332 332 331 331 330 330 330 329 329 325 316 312 312 313 313 315 317 318 319 321 324 326 326 325 323 321 321 322 322 321 321 322 322 322 322 323 322 318 315 317 320 320 320 320 321 320 319 321 322 323 323 323 324 323 323 323
330 331 331 329 329 330 332 332 332 331 331 330 330 330 330 330 329 327 328 331 333 333 332 331 331 332 332 332 332 331 332 331 331 331 330 330 329 329 328 324 317 313 314 316 318 320 320 321 323 326 327 327 326 325 322 321 321 322 322 321 322 322 323 323 323 323 319 314 317 320 320 320 320 320 321 320 321 322 322 323 324 324 323 323 323
331 331 331 329 329 329 331 332 331 331 330 329 330 329 329 330 330 327 325 329 333 333 332 331 331 332 332 332 331 330 331 331 330 330 330 330 329 328 329 329 324 317 318 321 321 321 322 323 325 327 328 328 327 327 325 321 320 321 322 322 322 323 324 325 324 324 321 315 317 321 319 320 320 321 322 321 321 322 322 323 324 323 323 323 322
331 331 331 330 329 329 330 330 330 330 329 329 329 329 330 330 330 329 325 326 331 332 331 331 332 332 332 332 331 329 329 330 330 330 330 329 329 329 328 329 329 326 325 327 325 323 323 324 325 326 327 328 328 328 327 324 321 320 321 321 322 323 324 326 325 325 323 316 317 322 318 318 320 321 322 323 322 322 322 323 323 323 322 322 322
333 332 331 330 329 328 329 329 330 330 329 329 328 327 328 329 329 329 326 324 328 331 330 331 332 332 332 331 330 328 327 327 329 329 330 330 329 329 328 328 329 330 329 329 328 327 326 324 325 326 326 327 327 328 328 327 324 322 321 321 321 322 324 326 325 325 324 318 316 320 318 315 318 321 322 323 323 323 323 323 322 321 321 321 320
334 333 333 332 331 329 329 329 330 330 329 328 328 326 326 328 329 329 327 324 325 329 331 331 331 331 331 331 330 330 328 326 328 329 330 330 329 329 328 328 329 330 330 330 329 328 328 326 325 325 324 325 325 327 328 328 327 326 324 323 322 323 324 325 326 324 324 320 314 317 318 312 312 317 320 322 322 323 323 322 321 320 319 317 314
334 334 333 332 331 331 329 330 330 330 329 328 328 327 326 327 329 329 329 328 327 329 331 331 331 331 331 331 331 331 329 327 327 329 329 329 329 329 328 328 328 329 330 330 329 328 328 327 326 324 322 322 323 325 327 327 328 327 326 325 324 324 324 324 325 323 324 320 310 313 318 312 307 309 313 316 318 320 320 319 317 315 313 310 306
334 333 332 332 332 331 330 330 330 330 329 328 327 328 327 327 328 330 331 331 330 330 330 331 332 332 331 331 331 331 330 329 327 328 329 329 329 328 328 328 328 328 329 329 329 328 328 327 327 324 321 321 323 324 326 327 327 326 326 327 326 325 324 325 325 323 323 318 307 309 316 313 307 305 305 307 309 312 313 311 309 307 305 303 302
333 333 332 332 332 332 331 330 330 330 330 329 328 329 328 327 328 329 330 331 331 331 330 330 331 332 332 331 331 331 330 330 329 328 329 329 329 329 328 328 328 328 328 329 329 328 328 328 327 326 323 322 323 324 325 324 323 324 325 326 326 325 325 325 325 324 322 313 305 307 313 312 307 304 304 303 304 305 305 304 303 302 301 301 301
333 333 333 332 332 333 333 331 330 330 330 330 330 330 329 328 328 329 330 330 330 331 331 330 330 331 332 331 331 330 331 331 329 328 328 329 329 329 329 328 329 328 328 329 330 329 328 328 328 327 326 325 323 323 324 320 319 321 324 325 325 325 326 325 325 325 319 310 305 306 308 308 306 303 303 302 302 302 302 302 301 301 301 301 301
332 333 333 333 333 333 332 332 332 331 331 330 330 330 330 329 329 329 330 330 329 329 329 329 329 330 330 330 330 331 331 330 329 327 328 330 329 329 329 329 329 328 328 329 330 330 328 327 328 328 327 327 324 322 321 316 315 318 320 322 323 325 326 325 326 324 316 308 305 305 305 305 304 303 302 302 302 301 301 301 300 301 301 301 302
332 332 332 333 333 333 332 332 332 332 331 331 331 331 331 331 330 330 330 329 329 328 328 327 328 328 329 329 329 330 330 329 329 328 328 329 330 330 330 329 330 329 328 329 330 330 328 327 328 329 328 327 325 322 319 316 317 317 315 316 320 324 325 325 325 321 313 307 305 305 304 303 303 303 302 301 301 301 301 301 301 301 302 302 303
333 333 333 333 333 333 333 333 333 332 332 332 331 330 331 331 330 330 330 329 329 329 328 327 326 327 328 328 327 328 329 328 329 329 329 329 330 330 330 330 330 329 329 329 330 329 328 328 328 329 328 327 326 324 322 322 321 318 311 312 319 323 324 326 324 317 311 307 305 305 304 302 303 302 302 301 301 301 301 301 302 302 303 303 303
332 333 334 334 333 333 333 333 333 333 333 332 332 331 331 330 330 330 330 330 330 329 329 328 326 326 327 327 327 328 328 329 329 329 329 329 329 330 330 330 330 330 329 330 329 329 329 328 328 328 328 327 327 326 326 326 323 315 309 311 318 321 324 325 321 315 310 306 305 305 303 302 302 302 302 301 301 301 301 302 303 303 303 303 303
332 333 334 333 333 332 332 333 332 332 333 332 332 332 331 331 331 331 330 330 330 330 330 329 328 327 327 327 327 328 329 329 329 329 329 329 329 329 329 330 330 330 330 329 329 329 328 328 328 328 328 328 327 327 327 327 322 313 310 313 317 320 323 320 317 313 308 305 305 304 303 302 302 302 302 301 301 301 301 303 303 303 303 303 303
334 334 333 332 333 333 333 333 332 332 333 332 333 332 332 332 332 332 331 330 330 330 330 330 330 329 328 327 327 328 330 330 329 329 329 329 329 329 329 329 330 330 330 329 329 329 328 328 328 328 328 328 328 327 327 326 322 314 312 314 315 318 317 313 313 312 307 305 305 303 302 302 302 302 301 301 301 301 302 303 303 303 303 303 303
334 334 333 333 333 334 334 333 332 332 332 332 332 332 332 332 332 332 332 331 330 330 331 331 331 330 329 327 327 328 329 330 330 329 330 329 328 329 329 329 329 329 329 329 329 329 328 328 328 328 328 328 328 327 326 325 322 316 314 316 315 314 310 308 310 309 305 305 305 302 302 302 301 302 301 301 301 302 303 303 303 302 303 303 303
332 333 333 333 333 333 333 333 332 332 332 332 332 332 331 331 331 332 332 332 331 330 330 331 331 331 330 329 328 328 328 328 328 329 330 329 328 328 328 329 329 329 329 329 329 329 328 328 328 328 328 327 327 327 325 324 322 318 316 315 315 313 307 305 308 306 305 306 303 302 302 301 301 301 301 301 302 303 303 303 303 303 303 303 304
331 332 332 332 333 333 333 333 332 332 332 331 331 331 331 331 331 331 331 332 332 331 330 331 332 332 331 330 329 328 327 326 326 327 329 329 328 328 327 328 329 329 329 329 329 329 329 328 328 328 328 327 327 326 325 324 322 321 320 315 314 313 307 305 306 305 306 305 303 302 302 301 301 301 301 301 302 303 303 303 303 302 303 303 304
331 331 332 332 332 332 332 332 332 332 332 331 331 331 330 330 330 330 330 331 332 332 331 331 331 332 332 331 330 329 328 326 325 326 327 327 328 328 328 328 328 329 330 329 329 329 329 329 328 328 328 328 327 326 325 324 322 322 322 320 316 313 308 305 306 306 306 304 303 302 302 301 301 301 301 302 302 303 303 303 303 303 303 303 305
331 331 332 332 332 332 332 332 332 331 330 329 329 329 329 329 328 328 328 329 330 331 331 330 329 331 331 331 331 330 329 328 327 326 326 326 327 328 328 328 328 329 330 330 330 329 328 329 329 328 328 328 327 326 326 324 323 322 323 323 319 311 307 306 305 306 306 304 303 302 302 302 301 301 301 302 303 303 303 303 303 303 303 304 306
329 330 331 332 332 332 332 332 332 331 330 328 329 329 329 328 328 327 328 328 329 329 330 330 330 331 331 330 331 330 330 329 329 328 326 325 326 327 327 327 328 329 329 330 330 329 328 329 329 329 328 328 327 327 326 324 322 323 323 323 319 310 305 306 305 306 306 303 303 303 302 302 301 301 301 302 303 303 303 303 302 303 303 305 308
328 329 330 331 331 331 332 332 332 331 330 329 329 329 329 328 328 328 329 328 328 329 329 330 330 330 331 330 331 330 330 330 329 329 329 326 326 327 327 326 328 329 329 329 329 329 329 328 329 329 329 328 327 327 327 324 322 323 323 323 321 311 305 306 306 306 306 303 303 303 302 302 302 301 302 302 303 303 303 303 302 303 303 306 309
326 327 327 329 329 330 331 331 331 331 331 330 330 330 329 328 328 327 328 328 328 328 327 328 328 330 330 330 330 331 330 330 330 329 330 329 327 328 328 327 328 329 329 329 329 328 328 328 329 329 329 329 328 327 328 326 324 323 322 323 321 313 306 305 306 306 306 303 303 303 303 302 302 302 302 302 302 303 302 302 302 302 304 307 310
322 323 324 326 327 328 330 330 330 330 330 330 329 329 329 329 328 328 327 328 327 326 324 324 325 328 330 329 329 330 330 330 329 329 330 330 329 329 328 327 328 329 329 329 328 328 328 329 329 330 329 329 328 327 327 327 325 324 323 322 323 318 309 305 306 306 306 304 303 303 303 302 302 302 302 302 302 302 302 302 302 302 304 308 310
317 318 319 322 324 326 328 329 329 330 329 329 329 329 329 329 329 328 328 328 327 326 325 324 324 327 329 329 329 330 329 329 329 329 330 330 330 330 328 325 325 328 329 328 329 328 328 329 329 329 329 329 328 328 327 327 325 324 324 322 323 321 313 305 305 306 307 305 303 303 304 303 303 302 302 302 302 302 302 302 302 302 304 308 310
315 316 316 317 319 321 323 325 327 328 328 328 329 329 329 329 328 328 328 328 328 327 326 325 325 326 328 329 329 330 330 331 330 329 330 330 330 329 327 324 325 328 330 329 329 329 328 329 330 329 329 329 328 328 328 327 325 324 325 323 323 322 314 306 305 306 307 306 303 303 304 304 304 303 302 302 302 302 302 302 302 302 304 308 310
314 315 315 316 316 316 318 321 323 325 326 327 328 328 328 328 328 328 328 327 327 327 326 325 324 325 327 328 328 329 329 331 331 330 331 330 329 329 328 326 326 328 329 329 329 329 328 329 329 329 329 328 328 328 328 328 326 325 324 323 323 322 314 305 305 306 307 306 304 303 304 305 304 304 303 303 302 302 302 302 302 302 305 308 310
312 313 314 315 315 315 316 318 321 323 324 326 327 327 327 327 328 328 328 326 325 326 326 327 327 327 328 328 328 329 329 329 330 331 331 331 329 329 328 326 324 325 328 329 329 329 329 328 328 328 328 328 327 328 328 328 327 325 324 323 323 322 315 307 305 306 307 307 305 303 304 305 305 305 304 303 303 302 302 302 302 302 305 309 310
311 312 313 314 314 315 316 318 319 321 322 324 325 326 326 327 327 327 327 326 325 326 327 328 328 328 328 328 328 328 329 329 330 331 332 331 330 329 327 324 323 324 327 329 328 329 329 328 328 328 328 327 327 327 328 328 327 325 324 324 323 321 316 309 306 306 307 307 306 304 303 305 306 306 305 304 303 303 303 302 302 303 305 308 310
311 311 312 313 314 315 316 318 318 319 320 321 322 324 325 326 327 327 326 326 326 327 327 327 328 328 328 328 328 329 330 330 330 330 330 331 330 328 325 324 323 324 327 329 328 328 329 328 328 328 327 327 326 327 327 327 327 326 325 324 322 318 314 309 306 306 306 307 306 304 303 304 306 306 306 306 304 304 303 303 302 303 305 308 310
309 309 309 311 313 314 315 316 318 318 318 319 320 322 323 324 325 326 326 326 326 326 326 327 327 328 328 328 328 329 330 330 330 330 330 330 329 327 325 325 326 325 327 329 329 328 329 328 328 327 327 326 326 326 326 326 326 325 324 324 322 318 314 308 305 306 307 307 307 305 303 304 305 306 306 306 306 305 303 303 303 303 305 308 310
307 307 307 308 309 311 312 313 315 316 316 317 318 320 321 322 323 324 325 326 326 325 326 327 327 327 327 327 327 327 329 330 330 329 329 330 329 327 327 328 327 326 326 328 328 328 328 328 328 328 327 326 326 326 325 326 326 325 324 323 321 319 315 310 306 306 307 307 307 306 304 304 304 306 306 306 306 306 305 304 304 304 305 307 310
306 306 306 307 307 307 309 310 311 312 313 314 316 318 319 321 322 323 324 325 326 326 326 327 327 327 328 328 327 327 327 328 330 329 328 328 328 327 328 329 329 328 328 328 328 328 328 328 327 327 327 326 326 326 325 325 325 324 324 322 320 318 316 312 308 306 306 308 308 307 306 304 304 305 306 306 306 306 306 306 304 304 305 307 310
304 304 305 305 306 306 307 307 308 309 309 311 312 314 316 318 320 321 322 324 326 327 326 326 326 326 327 328 327 326 326 326 327 328 328 327 328 328 327 328 330 330 329 328 327 327 328 327 327 327 326 326 326 326 325 323 322 323 323 323 321 319 317 314 311 309 308 308 308 308 307 305 303 304 305 305 306 306 307 306 306 305 305 306 309
304 304 303 303 304 305 306 306 307 307 308 308 308 309 310 312 315 318 321 322 324 325 326 326 326 327 327 327 326 326 327 326 325 326 327 327 328 328 328 327 328 329 329 328 327 327 328 328 327 326 326 326 325 325 326 323 322 323 323 322 321 321 319 316 314 313 312 310 309 308 307 305 303 303 303 304 305 305 306 306 306 306 306 306 308
303 303 303 302 302 303 304 305 306 306 306 306 306 307 307 309 311 314 317 320 322 323 325 326 326 326 327 327 327 327 326 326 325 325 326 326 326 327 327 327 328 329 328 328 327 328 328 328 327 326 326 327 326 326 326 324 322 323 322 321 320 320 319 317 315 315 315 313 311 310 308 307 305 304 304 305 306 306 305 306 306 306 307 307 307
302 302 302 301 301 301 302 303 304 304 305 305 306 306 307 308 309 311 313 316 319 321 323 324 324 326 327 327 327 327 326 325 325 326 326 325 324 325 327 327 327 327 328 328 327 328 328 328 327 327 327 327 326 326 326 325 324 323 322 322 321 320 318 316 315 316 316 315 314 312 310 310 309 308 308 308 308 307 307 306 306 306 306 307 307
301 300 300 300 300 300 300 301 302 302 303 304 305 306 307 307 308 309 311 313 316 318 321 322 322 324 326 326 327 327 326 325 324 325 326 325 325 325 327 327 325 325 327 328 328 327 327 327 327 327 328 327 327 326 326 325 325 324 323 322 322 321 319 315 314 315 315 315 315 314 312 311 311 310 310 310 310 309 308 307 306 307 307 306 306
300 300 299 299 300 300 300 300 300 301 301 303 304 305 306 306 307 308 310 312 314 316 319 320 321 322 324 325 326 326 326 326 326 325 326 326 326 326 327 327 327 326 327 328 327 327 327 327 328 328 328 327 326 326 325 324 324 325 323 322 322 322 320 316 314 314 314 314 314 314 313 312 311 311 311 312 311 310 309 308 307 307 307 306 306
300 299 299 299 299 299 299 300 300 300 300 301 302 304 305 305 306 307 309 311 313 315 317 318 319 320 322 323 324 325 326 326 326 325 326 327 328 327 326 326 326 328 329 328 328 327 328 328 328 328 328 326 325 325 325 324 324 325 324 323 322 322 320 318 317 316 315 315 314 314 314 313 313 312 312 313 313 312 311 310 310 308 307 307 306
300 299 299 299 299 299 299 299 300 300 300 300 301 302 303 304 305 306 308 309 311 313 315 316 317 318 320 322 323 324 326 326 325 325 326 327 327 327 326 324 324 325 328 329 328 328 328 328 328 327 327 326 325 326 326 324 323 323 322 322 321 321 321 319 317 316 316 315 315 315 315 314 314 314 314 314 315 314 313 313 312 310 308 307 306
299 299 299 299 299 299 299 299 299 300 300 300 300 300 302 303 304 305 306 307 308 310 312 314 315 316 317 320 322 324 325 326 326 326 326 326 326 326 326 325 323 321 323 326 328 328 327 327 326 326 325 325 325 326 326 325 323 322 321 320 320 320 320 318 316 316 316 315 315 315 315 315 315 315 315 315 315 316 315 314 313 312 310 309 307
299 298 299 299 299 299 299 299 299 299 299 299 299 299 300 301 303 304 304 305 307 308 309 310 312 314 314 316 319 322 324 325 325 326 325 325 325 325 325 326 325 322 320 322 326 327 326 325 325 326 325 325 325 326 326 325 323 321 321 320 319 319 319 318 316 316 316 316 316 315 315 315 315 315 315 315 316 316 316 314 313 312 311 310 309
298 297 298 299 299 299 299 298 299 299 299 299 299 299 299 300 301 302 303 304 305 305 306 308 309 310 312 313 315 318 321 323 325 326 325 324 323 323 323 325 326 326 324 323 324 325 325 324 325 326 326 326 326 326 326 326 324 321 320 320 319 318 318 317 316 316 317 317 318 317 316 315 315 316 316 316 316 315 314 313 312 312 311 311 311
296 296 296 297 297 298 298 299 299 299 299 298 298 298 299 299 299 300 301 302 302 303 304 306 307 308 309 311 313 314 316 320 323 325 325 323 323 322 322 322 324 326 325 324 324 325 325 325 325 326 326 326 326 326 326 326 325 322 321 320 319 319 319 318 317 318 319 319 319 318 317 316 317 317 316 316 315 313 313 313 312 312 313 313 313
Wind_Speed
8 9 9 10 10 10 10 10 9 8 11 13 11 11 12 12 12 11 8 7 7 4 4 6 8 9 10 8 6 10 12 13 13 12 10 7 7 8 8 8 7 6 5 5 4 5 4 4 3 4 4 4 5 6 6 7 7 8 8 8 8 8 8 8 7 7 7 7 8 9 9 10 11 12 12 14 15 16 17 18 20 20 21 21 21
9 10 10 10 11 11 11 11 10 10 12 12 11 11 11 10 12 12 10 9 8 7 7 11 14 14 12 10 9 11 14 14 13 13 10 8 6 7 7 7 7 6 5 5 5 5 4 4 4 3 4 4 5 6 7 7 8 8 8 8 8 8 8 8 8 8 8 8 7 8 9 10 10 11 11 14 15 16 17 18 18 19 20 20 20
10 10 10 10 12 12 12 12 11 12 13 12 11 12 11 11 12 12 12 11 10 11 12 13 16 16 15 13 12 12 14 15 15 12 9 9 8 8 8 7 7 6 5 5 5 5 5 4 4 4 4 5 6 6 7 7 8 8 8 8 8 8 8 8 8 8 8 8 7 8 9 9 10 11 12 14 15 16 17 17 17 18 19 19 19
10 10 11 11 12 13 13 13 13 13 14 13 13 13 12 13 14 14 15 14 12 14 14 15 15 15 15 14 12 11 11 13 13 11 10 11 11 10 10 8 7 6 5 5 5 6 5 5 4 4 5 6 6 7 7 7 7 7 8 8 8 8 8 8 8 9 8 7 7 8 9 10 10 11 13 15 16 17 17 17 16 17 17 17 18
10 11 12 12 12 13 13 14 14 14 15 15 14 14 14 15 16 16 17 17 16 16 15 16 15 13 13 14 12 10 10 11 13 12 11 12 13 12 10 8 7 7 6 5 6 6 5 5 5 5 6 6 6 6 7 7 7 7 8 8 8 8 8 8 8 8 7 7 7 8 9 10 11 12 14 16 16 16 16 16 15 15 15 14 15
10 11 12 13 13 13 13 12 13 14 15 15 15 15 15 17 18 18 18 18 18 18 18 19 16 12 13 13 12 12 11 12 14 13 13 15 14 12 9 7 7 7 6 6 6 6 5 5 5 5 5 6 6 6 6 6 7 7 7 8 8 8 7 7 7 8 7 7 7 8 9 11 12 13 15 15 15 15 15 15 15 14 14 13 14
10 10 12 14 14 14 14 13 13 14 15 15 16 16 17 18 19 19 18 19 20 20 20 21 18 14 15 16 14 15 14 12 14 15 14 15 14 12 9 7 7 7 6 6 6 6 5 5 5 5 6 6 6 5 5 5 6 7 7 7 7 7 7 6 6 6 7 7 7 9 10 11 12 13 13 14 13 13 14 14 14 14 14 14 13
10 11 12 13 14 14 15 16 15 15 15 15 16 18 18 18 19 18 18 19 21 22 21 21 20 17 18 19 18 17 16 12 11 15 16 14 14 13 11 9 8 8 7 6 6 6 6 6 5 6 6 6 6 6 5 5 6 6 6 6 6 5 6 6 5 5 6 6 7 9 10 10 11 11 11 12 12 12 13 13 12 13 12 12 11
10 12 12 13 13 13 15 16 16 15 15 15 16 17 18 19 19 19 19 20 22 23 22 20 22 21 18 18 19 17 16 14 11 12 15 15 15 15 13 11 10 10 8 7 7 7 7 7 7 7 7 7 7 7 7 7 6 6 6 5 5 5 5 6 5 4 4 5 7 8 9 10 11 11 11 11 11 11 11 11 11 12 11 10 9
11 12 13 13 13 13 14 16 16 17 16 16 16 16 17 19 19 19 19 21 22 23 23 22 24 22 18 17 18 17 17 18 16 13 12 16 16 16 15 12 11 11 10 9 9 8 8 8 8 8 8 9 8 8 9 9 7 6 5 5 5 5 6 6 5 4 3 3 6 8 7 9 11 12 12 12 12 11 11 11 11 11 10 9 8
12 13 13 13 13 13 14 16 17 18 18 17 17 17 17 18 18 19 19 21 22 22 24 25 26 23 20 20 18 18 18 18 19 18 15 14 14 15 16 13 12 13 12 10 10 9 8 9 9 9 9 9 10 10 10 10 9 8 6 5 5 6 7 6 5 5 5 5 6 8 8 8 11 12 12 12 11 11 10 9 9 8 8 8 7
13 13 13 14 14 14 14 16 18 19 19 19 18 17 17 18 19 19 19 21 22 23 24 24 24 22 22 21 19 20 21 19 19 19 18 15 14 16 17 14 13 13 12 11 11 10 9 9 9 9 9 10 10 11 11 11 11 10 9 7 6 6 7 7 6 6 7 7 7 8 9 8 9 10 11 11 11 10 9 8 7 7 7 8 8
13 13 14 14 14 14 14 16 18 20 20 19 19 18 17 18 19 19 21 22 22 23 24 22 22 22 22 21 22 22 21 20 18 19 21 18 14 17 18 16 15 14 13 12 12 12 10 10 10 10 11 11 11 12 13 13 12 11 11 9 8 8 8 8 7 7 8 8 7 8 9 9 8 9 10 10 10 10 9 7 7 7 8 8 9
12 13 14 14 14 14 15 15 17 19 21 20 20 19 19 19 20 21 22 24 23 23 23 23 23 23 22 21 22 22 22 21 19 18 21 21 17 18 21 19 17 16 15 14 14 13 11 12 12 12 12 12 12 13 13 13 12 12 12 11 10 10 9 9 9 9 9 9 7 8 9 9 8 8 9 9 9 9 9 8 8 8 9 9 10
13 15 15 14 14 14 15 15 17 19 20 21 21 21 21 21 21 23 23 24 24 23 24 24 25 24 22 22 21 21 21 22 22 20 20 23 21 20 22 21 19 18 17 17 16 14 13 13 13 12 13 13 13 13 13 12 11 12 13 13 12 11 11 11 11 11 10 9 8 8 8 8 8 7 8 9 9 9 9 9 9 10 10 12 12
14 15 15 15 14 14 14 15 16 18 19 21 22 23 23 22 23 24 25 25 25 25 24 24 26 26 23 22 19 17 20 22 24 23 21 24 25 23 23 22 21 21 20 19 17 17 15 13 13 13 13 14 13 13 13 12 12 12 13 14 13 13 12 12 12 12 11 9 9 9 8 8 8 8 8 9 9 10 10 10 11 12 12 14 15
12 14 15 15 15 15 15 15 16 16 17 19 21 22 23 24 24 26 26 27 27 26 26 25 27 28 26 24 19 17 21 22 21 20 21 26 27 25 24 23 24 23 23 21 18 18 16 13 13 13 14 15 15 15 14 13 13 13 13 14 14 14 14 14 14 13 11 10 10 10 9 9 9 9 9 9 10 10 11 12 13 14 14 14 15
10 13 14 15 16 17 17 16 17 17 17 18 20 22 24 24 25 26 27 27 27 28 28 28 27 28 28 28 25 22 23 21 19 18 19 24 28 27 25 25 25 24 23 22 19 18 16 15 14 15 15 15 16 17 15 15 14 13 13 14 14 15 15 16 14 13 12 11 11 11 10 10 10 9 10 10 11 12 13 14 14 15 15 14 13
11 13 14 15 18 19 19 18 18 18 18 19 20 21 23 24 25 26 27 27 27 29 29 28 28 29 29 29 29 29 26 22 20 18 16 20 26 28 27 26 26 25 23 22 20 19 19 18 18 17 16 16 17 18 16 15 15 13 13 14 14 14 16 16 15 13 13 12 12 12 11 11 11 10 11 11 12 14 15 15 15 15 15 14 13
11 13 13 15 18 19 20 20 20 19 20 20 21 21 23 25 26 27 28 28 28 29 29 29 30 31 30 30 31 32 31 26 23 20 18 18 20 25 27 27 27 27 25 23 20 20 20 21 21 20 18 18 19 19 17 17 16 14 14 14 14 15 15 15 14 14 14 13 13 12 12 11 11 12 12 13 14 16 16 17 16 15 14 14 13
11 11 12 14 17 18 20 21 21 21 21 21 22 22 23 25 28 29 29 29 29 29 29 30 31 32 32 31 31 33 33 31 27 24 22 21 19 21 25 27 29 28 26 24 21 20 21 22 23 22 20 20 21 20 18 18 16 15 15 15 15 15 15 14 15 16 15 14 14 13 12 12 13 13 13 15 16 17 17 17 17 15 14 14 14
14 12 11 12 14 16 18 20 20 22 22 22 23 23 23 25 27 29 29 30 29 30 31 31 32 33 33 33 32 33 34 33 32 29 27 25 22 21 22 26 29 29 26 25 23 22 23 24 25 23 21 22 22 22 20 17 15 16 16 16 16 15 15 15 16 16 15 15 14 14 13 13 14 15 15 17 18 18 18 18 17 15 14 13 14
14 15 13 12 13 15 16 18 19 21 23 24 25 25 25 25 26 27 29 30 30 31 32 32 32 34 34 34 34 34 35 34 33 32 31 29 26 23 22 23 26 27 27 27 25 23 24 26 26 25 24 23 24 23 21 18 15 15 15 16 17 16 15 16 16 16 16 16 15 14 14 15 15 16 17 18 19 19 18 18 16 15 14 14 13
12 13 13 13 14 14 15 17 20 21 22 23 25 26 27 27 27 28 29 29 30 31 32 32 33 35 35 35 36 36 37 36 33 32 31 30 29 27 24 22 24 26 27 28 26 25 26 27 27 27 26 25 25 24 22 19 18 15 13 15 17 17 17 17 17 17 17 17 16 15 15 16 16 17 18 20 20 20 19 18 16 15 14 14 13
12 12 12 13 13 13 15 16 18 20 20 22 24 25 25 25 26 28 30 30 30 31 32 32 32 34 35 35 36 38 38 36 34 34 32 30 30 30 28 26 25 25 28 29 29 29 28 28 29 29 29 27 25 25 24 22 20 17 15 15 17 18 18 17 18 18 18 18 17 16 17 17 17 18 20 21 21 20 19 18 17 16 15 14 14
12 12 12 12 13 14 16 17 18 18 19 20 22 23 23 23 24 26 28 29 29 30 32 33 31 31 34 34 35 37 38 37 35 35 35 32 31 30 29 28 28 26 27 28 30 32 29 28 30 30 30 28 25 24 25 24 22 20 19 19 18 20 20 19 19 19 18 19 18 18 18 18 18 19 21 22 21 21 20 19 17 16 15 15 14
12 12 12 12 12 13 15 17 17 17 17 19 21 22 22 23 24 24 26 27 27 30 32 32 31 32 33 34 34 35 37 38 37 36 35 34 33 31 28 29 29 28 28 28 29 32 32 30 31 32 31 29 27 26 26 26 24 21 22 22 20 21 21 20 20 20 19 19 19 19 19 19 20 20 21 22 22 21 20 19 17 16 16 15 15
13 14 13 13 13 13 14 15 16 16 16 17 19 20 21 22 23 24 25 26 27 30 31 33 33 34 34 33 34 36 36 37 38 37 36 35 35 34 30 30 31 29 28 29 29 31 33 32 32 33 33 31 30 29 27 26 25 24 25 24 21 21 22 22 21 21 20 20 21 20 20 20 21 21 22 22 22 21 20 19 18 17 16 15 15
15 16 17 17 16 15 15 14 14 15 15 16 18 19 20 21 21 22 24 25 26 27 28 30 33 34 36 35 35 36 35 36 37 37 37 37 37 36 32 30 32 32 30 30 31 31 32 34 34 34 34 33 32 31 29 28 27 26 27 26 22 21 23 22 22 22 21 21 22 21 21 21 22 22 22 22 22 21 20 19 18 18 17 16 16
14 15 16 17 18 18 17 15 14 15 16 17 18 19 20 21 22 22 23 24 25 26 25 27 29 32 35 36 34 33 33 34 37 38 38 38 37 37 33 30 32 34 32 30 31 32 32 34 36 36 34 35 34 33 31 30 29 28 28 26 23 22 22 23 23 23 22 22 23 23 22 22 22 23 22 22 22 21 21 20 19 19 18 18 18
13 13 14 14 15 16 17 17 17 17 17 18 19 20 20 21 23 23 24 25 27 27 26 26 27 28 31 33 33 32 31 32 36 37 38 38 36 36 34 31 32 33 32 31 32 32 32 34 37 37 36 36 36 35 33 31 30 30 29 28 26 23 23 24 24 24 23 23 24 24 24 23 23 23 23 22 22 22 21 21 20 20 20 20 20
15 14 14 14 14 15 15 15 16 18 18 18 19 20 21 22 22 23 23 24 27 28 27 26 26 26 27 28 30 32 32 34 36 36 37 36 35 34 34 32 32 32 32 32 34 34 33 33 36 36 36 37 37 36 35 32 31 31 30 29 27 24 24 26 26 25 24 24 25 25 25 25 24 24 23 23 23 22 22 22 21 21 21 21 21
20 18 17 15 15 14 13 12 13 15 17 18 18 18 19 20 21 22 23 23 25 26 26 25 26 26 26 26 28 30 31 34 36 35 36 35 34 34 34 32 32 32 32 33 35 35 33 32 33 34 33 33 37 38 36 33 32 31 30 30 28 25 26 27 27 26 26 25 25 26 26 26 25 25 24 23 23 23 23 22 22 23 23 22 22
23 23 21 19 17 14 11 10 11 13 14 16 19 19 20 21 22 23 22 22 23 24 25 27 27 27 27 27 27 28 29 32 36 37 36 35 35 35 34 33 33 33 33 34 35 35 33 30 30 33 33 32 36 39 38 36 34 32 32 31 29 27 27 28 28 28 27 26 26 27 27 27 26 25 25 24 24 24 23 23 24 24 24 23 23
24 24 23 21 18 15 11 8 10 12 13 14 16 18 19 21 22 23 22 21 21 23 26 27 28 27 28 28 28 28 29 32 35 37 37 34 34 35 33 33 34 34 36 36 35 35 34 32 30 31 33 34 36 39 39 37 35 34 33 31 30 28 27 28 29 28 28 27 27 28 28 28 27 26 25 25 24 24 24 24 24 24 24 24 23
24 23 23 21 19 15 12 11 13 13 15 16 17 19 20 20 21 23 22 22 22 24 26 27 27 26 26 28 29 30 33 36 37 37 37 35 35 35 34 34 35 36 36 36 35 34 34 34 33 31 32 33 35 37 38 37 36 35 32 28 28 28 28 28 29 29 28 27 26 28 28 28 28 26 25 25 24 25 25 25 25 25 24 24 23
24 24 23 22 20 17 15 15 16 17 18 19 19 21 23 24 24 25 24 23 23 24 25 26 25 24 24 26 27 29 31 35 38 37 36 36 36 36 37 37 36 36 36 36 35 34 34 34 33 32 32 33 35 37 37 37 37 35 31 28 26 26 26 27 29 29 29 28 26 27 28 29 28 27 26 25 24 25 25 25 25 25 24 23 23
24 24 24 23 22 21 19 17 17 18 20 21 22 22 23 25 26 26 25 24 24 23 24 24 24 23 24 24 25 26 26 26 27 29 31 35 36 37 39 38 35 34 36 37 36 33 34 34 31 30 33 34 37 38 36 37 39 36 33 30 27 26 26 27 29 29 29 28 28 28 29 29 30 28 27 25 24 24 25 25 26 25 25 24 23
25 25 24 24 24 23 23 21 20 20 21 22 23 24 24 24 26 27 26 25 23 22 23 23 23 23 23 24 24 24 23 22 22 22 26 30 32 34 37 36 33 33 35 36 35 32 34 36 33 31 34 35 37 38 36 37 38 36 35 34 31 29 28 27 28 29 29 29 28 28 28 29 29 29 28 26 25 24 25 25 26 26 25 24 23
26 26 26 25 24 24 25 25 23 24 24 24 24 24 25 25 25 26 27 26 24 23 22 22 23 24 24 25 25 23 21 21 22 24 26 28 30 31 34 35 34 35 35 36 36 34 34 36 35 33 34 36 37 35 35 37 39 37 37 36 34 32 30 28 27 27 27 28 29 29 29 29 30 30 29 27 26 25 25 26 26 26 25 25 24
24 26 28 28 27 26 27 27 26 26 27 28 29 29 28 28 27 26 26 26 27 27 26 23 23 24 25 25 23 21 20 19 20 24 25 26 27 30 33 34 35 36 37 36 37 36 35 36 37 35 35 38 38 37 37 39 40 39 38 37 34 32 29 28 27 26 24 25 27 28 29 31 31 30 29 28 27 26 27 27 26 26 26 26 25
24 25 27 29 29 29 29 28 28 29 29 30 31 30 29 29 28 26 25 25 26 27 27 26 24 23 23 23 22 20 20 19 20 23 23 23 25 29 31 31 34 37 38 37 36 35 36 37 38 38 38 38 39 40 40 38 36 36 38 38 36 33 30 29 29 27 24 23 24 26 27 28 29 29 28 28 27 27 27 27 27 26 26 26 26
27 27 28 29 31 32 32 32 31 31 31 31 31 31 30 29 28 26 25 23 22 24 25 26 25 24 22 22 23 23 23 22 21 22 23 23 24 28 29 28 30 34 36 38 37 37 37 38 38 38 38 38 39 40 40 38 35 35 37 38 36 35 33 33 33 32 29 26 25 25 26 27 27 27 27 27 26 27 27 27 26 25 25 25 26
31 31 31 32 32 33 34 34 35 35 34 32 31 31 32 31 29 27 24 22 20 20 20 21 22 23 24 23 23 24 23 22 22 21 22 23 24 27 28 28 29 31 34 36 37 36 37 38 39 38 38 38 39 39 39 37 35 37 38 37 37 37 36 36 36 34 31 30 29 27 27 29 29 28 27 25 25 25 26 25 25 24 24 25 26
32 32 34 35 35 35 35 36 36 37 37 36 33 32 33 33 31 29 25 21 19 16 16 17 18 19 22 22 23 23 22 21 21 21 22 22 23 26 28 29 31 33 35 34 33 33 35 37 40 39 37 37 39 39 38 36 35 38 40 39 39 39 38 38 37 33 29 30 32 31 30 30 30 30 27 24 24 25 24 24 24 24 25 26 26
33 34 35 36 37 36 36 36 37 36 37 39 38 36 34 34 33 31 27 23 19 15 14 15 16 17 18 19 20 19 19 20 21 21 21 20 20 23 25 27 29 31 35 35 32 33 36 37 37 36 35 36 37 37 38 39 38 38 38 40 41 42 41 39 34 29 27 28 32 33 33 31 30 29 27 24 23 24 23 23 24 25 26 27 26
32 33 34 35 36 36 38 38 38 38 38 38 40 39 37 35 35 33 31 28 23 18 14 14 15 15 16 18 19 17 17 19 20 19 19 19 20 21 22 24 27 29 31 33 33 33 35 35 34 32 33 35 34 35 37 39 39 37 33 34 38 41 42 39 35 30 29 30 32 33 34 32 30 29 28 25 24 24 23 22 23 25 26 27 27
30 31 31 33 34 36 38 39 40 40 40 39 41 41 40 37 36 36 35 32 28 23 19 16 15 15 15 16 18 18 17 18 18 17 17 17 18 20 20 21 25 28 30 30 30 30 30 31 30 29 31 33 32 34 35 34 37 36 31 29 36 43 44 41 38 35 34 33 34 35 35 33 32 32 31 28 26 25 25 24 24 23 24 26 27
27 28 28 29 32 34 36 38 40 40 41 41 41 42 43 41 39 39 39 37 33 30 26 22 18 16 15 14 15 16 17 18 17 16 14 14 16 17 19 20 24 29 30 29 29 28 28 29 30 30 31 31 31 31 31 31 37 39 33 27 32 41 45 43 39 36 35 35 36 37 38 36 34 33 33 31 30 29 27 27 26 24 23 23 25
25 26 25 26 29 32 34 36 37 38 39 39 40 41 42 42 42 41 41 40 38 36 33 28 24 20 18 16 15 14 14 17 19 17 15 15 16 17 17 20 24 26 27 26 28 30 31 33 34 33 33 32 31 30 30 32 38 42 39 33 30 32 38 42 40 36 35 34 35 37 39 37 33 33 34 33 30 27 26 26 24 22 22 22 22
33 31 30 29 30 31 32 33 34 35 36 37 38 39 40 40 41 41 41 41 42 41 38 35 30 26 22 19 18 16 14 13 17 19 18 17 16 17 16 18 21 23 24 24 25 28 33 36 35 34 33 32 32 32 31 32 37 41 43 41 37 34 35 38 39 37 33 32 33 36 38 35 32 33 36 34 28 23 22 23 24 23 24 24 23
Wind_Direction
271 276 270 259 255 249 248 248 235 214 204 202 202 208 200 196 203 192 184 187 176 185 216 234 234 228 234 217 216 247 249 256 265 274 286 295 293 287 279 269 264 268 258 243 233 219 201 179 158 141 125 110 105 102 102 102 104 105 103 101 98 95 92 89 88 87 87 86 83 84 86 87 90 94 96 99 99 97 95 95 94 92 91 91 91
269 272 266 256 255 250 244 242 237 223 211 207 205 210 205 203 210 202 208 212 191 198 224 238 234 228 231 216 212 240 246 251 263 273 282 288 293 296 288 270 258 257 245 231 223 212 195 180 164 149 128 114 112 110 111 112 111 111 108 105 102 99 96 94 92 87 85 87 88 90 91 90 93 96 101 106 105 101 97 96 97 97 95 95 94
263 266 261 256 256 254 247 241 239 231 223 215 209 214 215 212 212 211 220 223 205 202 218 237 238 237 236 222 219 236 245 254 265 271 281 288 288 295 296 276 255 245 231 219 215 205 190 184 172 153 135 123 118 116 118 118 117 116 113 109 105 102 99 97 95 89 86 89 94 96 95 96 97 98 104 110 109 104 99 97 97 97 97 97 96
258 259 256 256 256 254 250 241 237 235 231 223 215 220 225 222 221 221 224 227 216 207 218 233 238 245 239 224 223 229 240 255 266 267 272 283 286 292 297 280 251 234 221 210 207 203 193 186 173 154 137 127 121 120 122 121 122 122 118 113 110 107 103 102 97 89 86 88 94 98 98 98 98 101 107 111 110 104 101 100 98 96 96 97 98
255 255 252 254 254 253 249 239 234 233 232 230 227 229 230 229 231 231 231 231 222 214 220 227 232 249 243 230 226 221 228 245 257 260 262 271 279 288 293 273 245 228 213 205 201 201 196 187 175 160 143 132 127 125 125 123 123 125 123 120 115 110 105 103 98 89 84 86 92 97 98 99 99 103 107 111 111 106 102 101 99 98 99 101 100
254 255 254 253 252 251 245 238 237 235 233 235 238 242 237 232 235 237 237 235 227 222 224 225 228 238 240 234 228 225 229 238 247 251 256 262 270 282 281 258 242 226 207 203 203 202 200 194 183 175 160 144 139 135 130 127 128 129 129 128 123 114 107 104 99 90 81 82 93 98 99 102 105 107 110 112 111 108 107 106 104 104 105 106 104
259 259 258 254 251 249 243 239 243 241 239 240 243 246 243 237 237 238 238 234 229 228 227 226 225 227 233 231 224 222 221 230 247 247 251 259 266 276 272 254 242 223 207 206 212 213 208 204 197 192 184 169 161 156 146 140 140 139 137 137 134 123 114 108 98 87 79 80 96 102 102 106 108 108 110 112 113 113 113 112 111 111 111 110 107
261 261 259 255 252 249 245 241 241 242 241 245 247 247 246 244 242 240 235 230 227 228 229 226 223 224 230 231 232 232 220 216 239 247 249 256 264 273 273 261 244 226 216 216 224 227 219 219 216 205 198 193 187 180 174 167 156 153 151 146 140 132 125 122 110 90 79 82 103 109 109 114 113 111 111 112 115 118 119 120 119 120 119 115 110
263 260 258 258 258 254 249 244 240 240 243 247 249 250 250 249 248 244 234 229 228 228 231 229 227 228 230 232 237 243 237 225 227 242 251 254 259 269 272 263 245 233 229 227 228 230 229 229 227 215 206 205 203 198 193 188 177 166 162 154 146 141 137 138 133 117 94 92 114 121 121 126 124 120 117 116 118 121 124 127 126 126 125 120 116
258 258 256 256 258 256 250 244 239 239 244 248 250 251 251 250 251 247 236 231 231 231 233 233 232 235 239 240 239 241 244 239 232 231 243 254 257 264 270 266 248 238 234 234 231 228 232 232 229 221 213 209 208 208 204 200 200 186 169 162 160 156 153 153 153 148 141 126 132 137 136 136 135 132 128 123 124 126 129 133 131 129 128 126 124
252 253 254 251 251 253 249 242 238 239 244 247 249 251 252 251 249 245 237 234 234 233 235 235 235 237 240 243 241 240 242 240 237 231 228 243 255 260 266 267 259 247 236 233 231 229 233 231 228 224 219 218 213 210 208 204 205 202 190 178 172 166 163 167 170 167 170 170 161 159 157 150 145 144 141 137 135 134 136 139 136 134 133 132 131
253 254 256 253 249 250 247 242 238 239 244 246 249 254 256 254 248 242 239 237 236 235 235 237 240 241 240 241 239 239 240 235 235 234 223 224 242 253 259 262 261 255 243 234 229 229 232 230 227 224 223 224 217 208 206 203 203 204 202 196 184 175 174 178 179 181 185 188 186 178 170 160 153 152 152 152 151 150 150 150 144 141 140 137 133
258 257 258 256 252 250 246 243 241 242 246 249 252 255 257 255 248 241 238 238 239 240 240 241 244 244 240 240 240 238 238 233 233 236 224 216 232 245 249 253 253 252 248 239 233 230 229 230 229 225 221 220 216 208 202 201 201 201 203 203 199 193 191 189 185 191 196 196 194 187 177 164 158 157 157 161 161 159 159 157 149 144 141 136 131
261 257 259 259 257 256 253 248 246 247 249 251 253 252 253 251 245 241 239 239 240 242 244 244 244 245 243 241 240 238 236 232 232 235 223 212 222 239 245 247 245 249 250 242 237 232 227 229 229 227 221 215 212 207 203 204 203 199 200 204 206 204 202 195 191 194 198 199 195 189 182 170 163 160 160 163 162 159 160 157 153 147 140 133 127
261 260 261 265 266 264 263 259 255 253 253 254 255 253 252 249 244 242 242 242 242 241 243 244 244 244 243 242 242 239 235 231 230 232 225 216 218 229 239 242 240 245 250 247 243 235 228 229 229 227 221 215 210 205 205 207 204 200 199 202 207 208 206 199 193 194 198 200 197 191 184 174 168 165 164 164 160 158 161 158 153 147 140 132 127
258 261 265 270 271 269 268 266 263 260 258 258 257 257 255 252 247 245 246 247 247 246 244 243 242 241 239 240 240 236 234 235 236 236 230 223 222 225 232 236 235 239 245 246 245 237 229 228 230 227 219 216 211 204 206 208 204 203 202 201 204 206 207 200 193 195 199 200 201 195 187 178 173 172 170 167 162 160 163 159 152 146 139 134 130
257 260 267 271 272 274 273 270 269 266 265 262 260 259 259 257 254 250 249 251 253 254 252 247 243 242 240 239 235 233 237 239 241 240 232 225 225 227 229 230 231 235 238 239 240 235 226 223 227 228 222 219 214 207 206 206 204 205 205 201 201 203 203 198 194 198 201 200 202 198 186 180 178 176 174 171 166 162 163 158 151 145 140 137 135
259 258 267 275 277 278 276 272 271 271 271 269 265 261 260 261 260 256 252 252 255 257 256 253 248 245 243 243 241 242 247 245 239 238 234 227 228 230 230 228 228 231 232 232 235 230 222 221 227 231 228 220 216 214 208 203 204 209 209 204 200 200 198 196 196 201 203 201 203 198 186 182 182 180 177 174 169 165 162 159 152 147 144 140 137
253 257 264 272 274 276 278 276 275 274 273 271 269 267 266 264 263 260 256 255 255 255 256 256 252 248 245 244 244 244 248 249 241 236 235 230 229 230 230 228 227 229 230 231 230 224 222 224 227 233 232 221 216 215 208 204 208 211 210 205 200 198 197 198 200 203 203 202 202 199 191 186 185 184 180 175 171 167 164 159 155 152 146 142 139
253 252 257 266 269 272 277 278 277 275 272 270 270 270 271 269 266 263 261 259 256 255 255 255 254 252 248 246 244 242 243 245 243 240 240 238 233 230 227 226 226 228 229 231 226 219 222 224 226 230 230 223 217 213 209 211 214 212 208 203 199 196 197 202 205 204 203 201 202 200 194 190 187 187 182 175 172 169 166 162 159 157 151 145 145
282 264 258 263 267 270 273 275 276 275 274 275 274 273 273 273 271 268 266 264 261 258 256 255 254 253 252 249 245 242 242 240 238 240 243 242 237 233 228 224 224 225 225 226 221 215 222 226 225 227 227 225 222 215 214 218 218 215 209 202 198 196 199 205 205 204 202 201 203 201 196 191 188 187 182 177 174 171 170 166 161 160 157 152 150
305 297 281 268 266 268 270 275 280 281 281 281 279 278 276 274 273 274 272 269 266 264 261 258 256 253 250 249 246 241 239 237 235 237 240 240 239 239 234 227 227 227 222 221 219 214 222 229 227 226 227 229 226 221 220 221 217 215 211 205 200 197 201 204 203 204 204 203 204 202 197 192 189 188 182 177 175 174 172 170 166 164 162 159 155
307 310 310 299 286 277 276 281 287 289 289 287 285 285 283 279 277 277 276 273 269 266 263 262 261 256 249 246 246 243 240 239 239 239 239 239 238 237 238 235 234 234 227 222 220 214 220 227 226 225 227 230 229 226 224 220 211 210 213 211 206 201 201 203 202 204 205 205 206 203 197 193 190 188 183 178 177 176 176 173 171 170 167 164 159
308 310 316 316 306 295 290 290 291 291 292 293 292 291 289 287 285 281 277 275 272 268 265 263 261 258 252 246 245 245 244 244 244 243 242 243 243 241 243 242 239 237 232 226 221 217 220 225 224 224 228 230 230 227 224 220 213 210 215 219 214 207 203 203 203 205 206 207 206 203 197 194 192 188 183 180 179 179 179 178 177 175 172 167 163
315 314 311 312 309 302 296 293 295 296 297 299 299 296 292 290 289 286 280 276 272 271 269 265 261 259 257 251 246 245 246 245 243 243 244 246 246 247 248 247 242 237 232 227 223 219 219 222 223 225 228 229 227 224 222 222 219 213 216 227 227 216 207 204 205 205 207 208 206 203 198 194 193 190 185 183 182 183 182 182 182 180 177 172 168
314 311 307 305 304 303 299 295 295 300 303 303 300 296 293 290 289 289 288 283 276 273 272 270 266 263 260 255 252 249 247 246 243 242 243 242 241 244 246 245 241 236 232 230 228 224 219 218 222 226 228 227 224 222 221 222 222 216 219 232 234 222 210 205 206 207 208 208 206 203 199 196 194 191 188 187 186 187 187 186 186 184 181 178 174
302 299 299 297 295 300 302 300 302 305 304 301 296 293 291 290 291 291 291 290 285 278 274 273 271 266 262 257 255 253 249 246 245 243 244 241 237 240 243 241 237 233 232 232 231 229 222 217 220 225 226 224 221 222 221 220 221 218 221 231 233 224 212 206 206 207 208 209 207 204 200 197 196 193 192 191 190 190 191 190 190 188 185 183 180
292 289 288 289 294 299 302 310 323 325 315 303 298 297 295 293 295 295 292 291 290 284 278 276 272 268 265 259 255 253 250 247 246 246 246 242 237 239 242 240 235 230 230 231 230 230 224 218 219 222 223 220 219 222 224 222 220 218 221 228 232 226 214 207 206 207 209 209 207 205 202 198 198 196 195 194 194 193 194 194 192 190 188 186 185
281 282 281 280 285 291 295 307 323 328 321 311 303 302 302 299 296 297 296 293 292 291 289 286 282 276 271 266 258 253 250 248 246 245 246 242 238 238 239 240 238 232 229 229 230 230 224 217 216 218 219 218 218 221 224 225 221 218 221 225 228 227 217 210 208 207 208 209 208 205 203 201 200 199 199 198 197 196 197 198 195 192 189 186 186
287 287 284 279 277 278 281 290 304 315 321 320 314 309 305 303 301 298 297 295 291 292 294 292 290 286 282 279 270 260 253 249 245 244 244 242 239 238 236 237 240 238 234 232 233 233 225 216 215 218 218 217 218 220 223 225 220 218 223 225 227 230 223 213 209 209 208 209 209 206 204 204 202 202 202 200 199 200 201 201 199 195 192 189 188
319 310 303 295 287 281 279 281 288 298 309 316 318 316 309 303 301 298 294 293 291 292 292 292 292 290 289 290 282 272 265 257 248 245 243 241 240 236 232 233 240 244 241 237 236 234 226 217 215 218 219 216 216 219 222 222 219 219 225 227 229 234 229 217 211 210 210 210 210 207 205 206 205 204 205 204 202 203 204 205 203 200 196 193 192
348 338 327 317 309 300 293 293 293 291 296 304 313 320 314 305 301 298 296 294 292 293 293 293 294 292 291 291 285 277 269 257 248 245 244 242 239 233 230 233 239 243 241 237 236 235 229 222 218 218 219 216 214 217 220 219 216 219 226 228 230 235 229 218 212 211 210 211 211 208 207 207 207 206 206 206 205 205 207 207 206 204 200 198 197
3 360 354 346 335 320 316 325 319 298 288 289 296 308 311 304 299 297 296 295 292 293 293 292 293 292 292 291 286 281 271 257 250 247 243 241 238 231 228 233 237 239 238 235 235 235 231 227 224 221 219 215 214 217 218 216 214 216 222 225 228 233 229 217 212 212 210 212 212 210 208 208 209 208 208 208 208 208 209 209 208 206 203 202 201
13 11 8 6 2 352 346 338 319 302 293 286 284 293 301 301 299 296 294 293 292 292 293 294 294 292 290 289 287 283 274 262 254 246 238 235 234 231 228 231 235 237 238 235 233 233 231 228 227 224 220 214 213 217 218 217 215 214 217 222 226 230 228 219 214 212 210 211 213 212 210 209 210 210 209 210 210 211 211 211 210 209 207 206 206
22 19 15 12 11 11 6 331 304 301 301 295 289 293 300 301 301 298 294 292 293 293 294 296 295 291 287 288 288 286 277 264 252 243 236 233 231 229 228 231 233 235 238 236 233 233 232 228 225 223 219 212 210 215 218 217 218 218 219 225 228 226 224 220 216 214 212 212 213 213 212 211 211 212 212 212 212 212 213 212 212 211 210 210 209
28 25 22 18 13 11 2 334 323 319 311 304 297 294 299 304 304 301 296 291 291 293 295 296 294 290 287 287 289 288 277 260 247 241 239 235 231 228 230 233 233 234 237 237 234 234 233 229 226 224 220 212 209 215 220 217 217 220 222 225 226 222 220 220 217 215 214 214 214 215 214 212 213 213 214 215 215 214 213 214 215 214 214 214 213
33 32 29 25 19 14 3 343 336 333 326 320 309 299 297 298 299 299 296 291 288 291 294 295 293 289 286 287 289 289 278 257 243 240 239 234 229 226 229 232 232 233 236 236 233 231 232 230 227 224 220 211 205 209 215 216 214 217 222 225 224 221 219 219 217 216 215 214 215 217 216 215 215 215 216 217 217 217 216 216 217 217 217 217 218
28 30 30 27 24 20 11 358 347 339 334 330 324 316 306 298 295 296 296 292 288 290 294 293 291 288 286 288 291 292 285 267 252 246 241 236 230 227 229 230 231 233 234 234 233 231 231 229 226 224 219 210 206 207 210 215 215 213 216 220 222 222 221 219 217 215 214 214 215 217 217 217 216 216 216 217 218 219 220 219 219 219 219 219 221
17 19 21 22 23 21 15 10 4 355 348 339 331 325 318 309 301 297 296 294 291 290 292 290 287 286 285 288 293 292 285 277 268 256 247 241 235 233 233 231 230 233 233 232 233 232 232 230 226 225 219 210 209 210 208 212 214 213 214 213 213 217 221 221 219 217 215 215 215 217 219 220 220 219 218 218 218 220 221 222 222 221 221 221 223
16 14 14 14 16 17 16 13 11 7 2 356 347 337 328 319 309 302 298 295 292 291 292 289 284 283 283 286 290 290 284 279 272 262 254 248 242 239 239 234 229 232 233 233 232 233 233 228 223 223 218 209 209 210 208 209 210 210 215 215 213 215 219 221 221 219 217 216 215 216 218 219 220 220 219 218 219 220 221 223 223 223 223 223 224
22 17 13 10 9 10 11 11 12 12 11 9 5 357 345 333 323 313 305 297 293 291 290 288 283 280 282 284 285 285 283 280 273 263 258 254 248 246 245 239 233 233 233 232 232 232 231 226 221 220 217 210 209 210 208 209 209 208 210 214 217 220 222 222 222 220 215 213 213 214 215 216 216 217 218 219 220 222 223 223 222 222 223 224 224
27 22 16 13 9 7 7 9 10 10 11 12 11 5 356 346 334 324 314 304 296 292 291 290 286 282 281 282 282 283 284 280 269 261 258 257 254 251 246 239 234 233 231 230 230 228 225 222 219 217 215 211 210 211 210 209 209 208 207 210 215 219 220 219 219 219 214 211 213 213 211 212 213 213 216 219 221 224 225 225 224 224 224 224 224
27 23 22 20 15 11 10 10 10 8 8 10 10 7 3 356 345 335 325 315 305 295 291 292 293 288 282 278 277 281 285 281 269 259 255 253 255 254 247 240 239 238 235 233 233 229 225 224 220 214 213 214 213 213 212 209 208 211 212 212 214 215 215 214 215 217 215 213 215 215 212 211 213 214 218 223 225 229 230 230 228 228 227 226 225
25 23 24 24 20 16 14 12 11 9 7 7 7 7 6 3 356 346 335 326 317 304 293 293 297 292 284 280 277 278 282 280 272 265 258 253 253 254 250 243 241 244 244 240 237 234 232 229 225 219 217 217 216 214 213 212 212 214 214 214 215 214 213 213 213 215 216 213 215 218 218 216 216 218 223 228 230 232 233 233 232 230 229 228 227
22 21 24 26 23 20 17 14 12 9 5 5 5 7 7 6 3 357 348 338 328 316 302 296 296 293 288 285 281 277 276 276 275 272 265 258 252 251 253 251 243 241 245 245 239 237 238 234 228 224 223 221 219 218 219 217 216 213 211 212 216 216 214 213 212 215 217 214 213 217 221 221 219 220 225 229 230 231 232 231 231 231 230 229 228
19 20 23 25 24 22 20 18 15 10 6 4 4 6 7 7 7 4 360 353 344 332 319 307 301 295 289 287 287 281 272 271 277 277 268 261 254 245 246 251 248 241 240 241 238 237 238 235 230 228 228 229 228 227 224 217 213 213 211 212 218 219 216 215 215 220 221 218 216 217 221 224 221 221 225 227 225 225 224 224 227 229 229 228 228
16 20 24 25 24 24 23 22 19 16 12 7 4 6 8 9 9 9 7 3 358 351 339 327 320 309 294 285 286 284 272 267 274 276 269 265 263 255 244 242 246 247 243 239 237 236 236 236 235 234 234 235 234 235 229 217 213 215 214 217 223 223 218 215 215 219 220 220 220 219 221 225 223 221 223 223 221 219 216 215 222 228 229 228 228
18 20 24 25 24 25 25 23 22 21 18 14 10 8 10 12 12 13 12 10 8 3 355 345 336 327 312 294 283 279 273 267 263 262 263 264 264 265 259 244 239 245 250 247 242 239 237 238 240 239 237 235 233 236 235 224 215 212 210 216 223 219 213 211 211 213 214 216 218 219 222 226 223 219 219 219 221 222 217 215 219 221 222 223 223
22 20 23 25 26 26 26 23 22 22 21 19 16 12 12 13 14 15 14 13 13 11 6 359 351 343 336 321 297 279 270 267 261 251 250 255 258 262 265 257 242 235 240 248 250 245 241 243 244 242 241 239 233 234 236 228 215 208 203 204 210 210 209 209 208 207 209 211 213 215 220 223 221 217 216 216 220 223 221 219 220 218 213 212 211
28 23 22 26 27 27 26 24 21 21 21 20 18 16 13 13 13 14 14 14 15 13 10 7 3 356 349 341 326 304 278 264 259 252 243 245 254 260 266 270 260 241 231 237 246 243 238 240 243 242 241 239 233 229 228 223 216 212 207 204 203 205 208 209 206 204 206 207 209 211 214 218 217 215 214 213 213 217 219 216 211 202 192 189 189
35 32 30 29 27 25 24 23 20 19 19 19 19 17 15 14 13 12 11 13 14 12 10 10 9 5 360 352 342 334 317 283 260 252 245 242 249 258 264 273 274 262 244 237 237 236 234 236 239 240 238 235 231 228 223 219 217 215 213 212 211 210 209 207 204 201 198 197 201 205 208 209 209 207 207 204 192 183 189 193 185 177 176 178 182